TimeEST,TemperatureF,Dew PointF,Humidity,Sea Level PressureIn,VisibilityMPH,Wind Direction,Wind SpeedMPH,Gust SpeedMPH,PrecipitationIn,Events,Conditions,WindDirDegrees,DateUTC
12:12 AM,53.6,50.0,88,30.21,10.0,Calm,Calm,-,N/A,,Overcast,0,2013-11-22 05:12:00
12:53 AM,54.0,50.0,86,30.21,10.0,Calm,Calm,-,N/A,,Overcast,0,2013-11-22 05:53:00
1:53 AM,55.0,51.1,86,30.21,10.0,South,3.5,-,N/A,,Overcast,180,2013-11-22 06:53:00
2:53 AM,55.0,53.1,93,30.21,5.0,South,5.8,-,0.02,Rain,Light Rain,190,2013-11-22 07:53:00
3:07 AM,55.4,53.6,94,30.21,10.0,South,5.8,-,0.00,,Overcast,180,2013-11-22 08:07:00
3:53 AM,54.0,53.1,97,30.21,8.0,SSW,3.5,-,0.00,,Overcast,200,2013-11-22 08:53:00
4:53 AM,55.0,54.0,96,30.19,9.0,South,6.9,-,0.01,,Overcast,190,2013-11-22 09:53:00
5:22 AM,55.4,53.6,94,30.19,10.0,SSW,6.9,-,N/A,,Overcast,210,2013-11-22 10:22:00
5:31 AM,55.4,53.6,94,30.19,6.0,SSW,9.2,-,N/A,,Overcast,210,2013-11-22 10:31:00
5:43 AM,55.4,53.6,94,30.19,3.0,SSW,8.1,-,N/A,,Overcast,200,2013-11-22 10:43:00
5:53 AM,55.0,54.0,96,30.19,4.0,SSW,10.4,-,N/A,,Overcast,200,2013-11-22 10:53:00
6:09 AM,55.4,53.6,94,30.19,6.0,SSW,6.9,-,N/A,,Overcast,210,2013-11-22 11:09:00
6:23 AM,55.4,53.6,94,30.19,6.0,SSW,6.9,-,N/A,,Overcast,210,2013-11-22 11:23:00
6:53 AM,55.0,54.0,96,30.19,4.0,SSW,8.1,-,0.01,,Overcast,210,2013-11-22 11:53:00
7:04 AM,55.4,53.6,94,30.19,3.0,SSW,10.4,-,N/A,,Overcast,210,2013-11-22 12:04:00
7:53 AM,55.0,55.0,100,30.19,2.5,SSW,9.2,-,N/A,,Overcast,210,2013-11-22 12:53:00
8:10 AM,55.4,55.4,100,30.20,1.5,SW,6.9,-,0.01,,Overcast,220,2013-11-22 13:10:00
8:25 AM,55.4,55.4,100,30.20,2.5,SW,8.1,-,0.01,,Overcast,220,2013-11-22 13:25:00
8:38 AM,55.4,55.4,100,30.20,1.5,SW,8.1,-,0.01,,Overcast,220,2013-11-22 13:38:00
8:53 AM,55.0,55.0,100,30.20,1.5,SW,9.2,-,0.02,Rain,Light Rain,220,2013-11-22 13:53:00
9:12 AM,55.4,55.4,100,30.21,3.0,SW,6.9,-,0.01,,Overcast,220,2013-11-22 14:12:00
9:27 AM,55.4,55.4,100,30.21,1.8,SW,5.8,-,0.01,Rain,Light Rain,230,2013-11-22 14:27:00
9:34 AM,55.4,55.4,100,30.21,2.0,SW,5.8,-,0.01,,Overcast,230,2013-11-22 14:34:00
9:43 AM,55.4,55.4,100,30.21,1.5,SW,6.9,-,0.01,,Overcast,230,2013-11-22 14:43:00
9:53 AM,55.9,55.0,97,30.20,2.5,SW,6.9,-,0.01,,Overcast,230,2013-11-22 14:53:00
10:05 AM,55.4,55.4,100,30.21,3.0,SW,8.1,-,0.00,Rain,Light Rain,230,2013-11-22 15:05:00
10:26 AM,55.4,55.4,100,30.22,2.5,SW,6.9,-,0.02,Rain,Rain,230,2013-11-22 15:26:00
10:34 AM,55.4,55.4,100,30.22,5.0,WSW,6.9,-,0.02,Rain,Light Rain,240,2013-11-22 15:34:00
10:53 AM,55.9,55.9,100,30.21,2.5,SW,6.9,-,0.03,Rain,Light Rain,230,2013-11-22 15:53:00
11:00 AM,55.4,55.4,100,30.22,3.0,WSW,5.8,-,0.01,Rain,Light Rain,240,2013-11-22 16:00:00
11:15 AM,55.4,55.4,100,30.21,2.5,WSW,4.6,-,0.01,,Overcast,240,2013-11-22 16:15:00
11:22 AM,55.4,55.4,100,30.21,2.5,WSW,5.8,-,0.01,,Overcast,240,2013-11-22 16:22:00
11:26 AM,55.4,55.4,100,30.21,3.0,WSW,4.6,-,0.01,,Overcast,240,2013-11-22 16:26:00
11:53 AM,55.9,55.0,97,30.20,10.0,Variable,5.8,-,0.02,,Overcast,0,2013-11-22 16:53:00
12:07 PM,55.4,55.4,100,30.20,6.0,West,4.6,-,0.00,Rain,Light Rain,280,2013-11-22 17:07:00
12:30 PM,55.4,53.6,94,30.20,2.0,WNW,9.2,-,0.02,Rain,Rain,300,2013-11-22 17:30:00
12:49 PM,53.6,53.6,100,30.20,4.0,NW,9.2,-,0.03,Rain,Light Rain,310,2013-11-22 17:49:00
12:53 PM,54.0,53.1,97,30.20,5.0,WNW,8.1,-,0.04,Rain,Light Rain,300,2013-11-22 17:53:00
1:15 PM,53.6,53.6,100,30.20,6.0,NW,8.1,-,0.00,,Overcast,310,2013-11-22 18:15:00
1:53 PM,53.1,52.0,96,30.20,6.0,NW,8.1,-,0.01,Rain,Light Rain,310,2013-11-22 18:53:00
2:47 PM,51.8,50.0,94,30.21,2.5,NNW,6.9,-,0.00,,Overcast,330,2013-11-22 19:47:00
2:53 PM,50.0,50.0,100,30.22,2.5,NW,8.1,-,0.00,,Overcast,320,2013-11-22 19:53:00
3:02 PM,50.0,48.2,94,30.22,6.0,NW,6.9,-,N/A,,Overcast,310,2013-11-22 20:02:00
3:13 PM,51.8,48.2,88,30.23,10.0,NW,8.1,-,N/A,,Overcast,310,2013-11-22 20:13:00
3:53 PM,51.1,48.9,92,30.24,10.0,NW,11.5,17.3,N/A,,Overcast,320,2013-11-22 20:53:00
4:53 PM,48.9,46.0,90,30.27,10.0,NNW,8.1,17.3,N/A,,Overcast,330,2013-11-22 21:53:00
5:53 PM,46.9,43.0,86,30.29,8.0,NNW,8.1,21.9,N/A,,Overcast,340,2013-11-22 22:53:00
6:19 PM,46.4,42.8,87,30.30,8.0,NNW,5.8,-,N/A,,Overcast,340,2013-11-22 23:19:00
6:53 PM,46.0,41.0,83,30.31,10.0,NNW,8.1,18.4,N/A,,Overcast,340,2013-11-22 23:53:00
7:53 PM,45.0,39.9,82,30.32,10.0,NNW,12.7,-,N/A,,Overcast,340,2013-11-23 00:53:00
8:53 PM,44.1,39.0,82,30.35,10.0,NNW,10.4,18.4,N/A,,Overcast,340,2013-11-23 01:53:00
9:53 PM,43.0,36.0,76,30.36,10.0,North,8.1,-,N/A,,Overcast,350,2013-11-23 02:53:00
10:31 PM,42.8,35.6,76,30.36,10.0,North,8.1,-,N/A,,Overcast,350,2013-11-23 03:31:00
10:41 PM,42.8,35.6,76,30.35,10.0,North,5.8,-,N/A,,Overcast,360,2013-11-23 03:41:00
10:53 PM,42.1,34.0,73,30.35,10.0,North,9.2,-,N/A,,Overcast,10,2013-11-23 03:53:00
11:53 PM,42.1,34.0,73,30.36,10.0,North,5.8,-,N/A,,Overcast,350,2013-11-23 04:53:00